AirNav   Everest Fuels
 
 772 users online  

FD06 Lake Bird Heliport
Lutz, Florida, USA

GOING TO LUTZ?


FAA INFORMATION EFFECTIVE 16 JULY 2020

Location

FAA Identifier: FD06
Lat/Long: 28-10-51.2400N 082-27-20.1600W
28-10.854000N 082-27.336000W
28.1809000,-82.4556000
(estimated)
Elevation: 70 ft. / 21 m (estimated)
Variation: 04W (2000)
From city: 4 miles S of LUTZ, FL
Time zone: UTC -4 (UTC -5 during Standard Time)
Zip code: 33549

Heliport Operations

Heliport use: Private use. Permission required prior to landing
Activation date: 06/2001
Control tower: no
ARTCC: MIAMI CENTER
FSS: SAINT PETERSBURG FLIGHT SERVICE STATION
Attendance: UNATNDD
Wind indicator: yes
Segmented circle: no
Lights: FOR PERIMETER LGTS AND FLOOD LGTS CALL 813-240-8300.

Heliport Communications

WX AWOS-3 at VDF (12 nm SE): 121.125 (813-630-0924)
WX ASOS at TPA (13 nm S): PHONE 813-873-7228
WX AWOS-3 at TPF (16 nm S): 118.925 (813-251-6824)
WX AWOS-3PT at ZPH (16 nm E): 118.975 (813-780-0031)
WX ASOS at BKV (18 nm N): 134.725 (352-799-5881)
WX AWOS-3 at PCM (19 nm SE): 120.025 (813-764-8259)

Nearby radio navigation aids

VOR radial/distance  VOR name  Freq  Var
PIEr041/20.4ST PETERSBURG VORTAC116.4005W
LALr296/26.1LAKELAND VORTAC116.0001E

 
NDB name  Hdg/Dist  Freq  Var  ID
COSME038/6.836805WTP - .--.

Heliport Services

Runway Information

Helipad H1

Dimensions: 40 x 40 ft. / 12 x 12 m
Surface: turf
Runway edge lights: PERI
Traffic pattern: leftleft

Heliport Ownership and Management from official FAA records

Ownership: Privately-owned
Owner: CYNTHIA GRECO
1630 DAIQUIRI LN
LUTZ, FL 33549
Phone 813-240-8300
Manager: COREY KEMPTON
1640 DAIQUIRI LN
LUTZ, FL 33549
Phone 813-263-4588

Heliport Operational Statistics

Aircraft based on the field: 1
Helicopters: 1
    

Additional Remarks

FOR CD CTC TAMPA APCH AT 813-878-2528

Instrument Procedures

There are no published instrument procedures at FD06.

Some nearby airports with instrument procedures:

KVDF - Tampa Executive Airport (12 nm SE)
KTPA - Tampa International Airport (13 nm S)
KTPF - Peter O Knight Airport (16 nm S)
KZPH - Zephyrhills Municipal Airport (16 nm E)
KBKV - Brooksville-Tampa Bay Regional Airport (18 nm N)
KPCM - Plant City Airport (19 nm SE)
 
Loc | Ops | Rwys | IFR | FBO | Links
Com | Nav | Svcs | Stats | Notes


 
Area around FD06 (Lake Bird Heliport)
 
Road maps at: MapQuest Bing Google
 
Aerial photo
No photo
 
Sectional chart

 
Airport distance calculator
Flying to Lake Bird Heliport? Find the distance to fly.

From to FD06

Sunrise and sunset
Times for 13-Aug-2020
 Local
(UTC-4)
 Zulu
(UTC)
Morning civil twilight06:3510:35
Sunrise07:0011:00
Sunset20:0900:09
Evening civil twilight20:3400:34

Current date and time
Zulu (UTC)  13-Aug-2020 04:27:10
Local (UTC-4)  13-Aug-2020 00:27:10
 
METAR
KVDF 
11nm SE 
130415Z AUTO 00000KT 10SM CLR 23/23 A3004 RMK AO2
KTPA 
13nm S 
130353Z 12003KT 10SM SCT050 BKN170 27/21 A3004 RMK AO2 SLP172 T02720211
KTPF 
16nm S 
130415Z AUTO 00000KT 10SM SCT110 26/25 A3004 RMK AO2
KZPH 
16nm E 
130415Z AUTO 03004KT 10SM CLR 24/23 A3006 RMK A02 T02390232
KBKV 
17nm N 
130353Z AUTO 14003KT 10SM CLR 24/22 A3005 RMK AO2 SLP174 T02390217
KPCM 
19nm SE 
130415Z AUTO 00000KT 10SM CLR 25/25 A3006 RMK AO2
KPIE 
20nm SW 
130353Z AUTO 00000KT 10SM CLR 27/24 A3004 RMK AO2 SLP170 T02720244
KMCF 
20nm S 
130356Z AUTO 08003KT 10SM SCT210 26/22 A3003 RMK AO2 SLP172 T02580223 FZRANO $
KCLW 
20nm SW 
130415Z AUTO 00000KT 10SM CLR 27/22 A3004 RMK AO2 PWINO
TAF
KTPA 
13nm S 
122103Z 1221/1324 35006KT P6SM VCTS SCT040CB BKN250 FM130200 VRB03KT P6SM FEW030 SCT250 FM131700 21005KT P6SM VCTS SCT030CB BKN250
KPIE 
20nm SW 
121722Z 1218/1318 36005KT P6SM VCTS SCT030CB BKN250 FM130000 VRB03KT P6SM FEW030 SCT250 FM131700 09006KT P6SM VCTS SCT030CB BKN250
NOTAMs
Click for the latest NOTAMs
NOTAMs are issued by the DoD/FAA and will open in a separate window not controlled by AirNav.

 

 
 

Would you like to see your business listed on this page?

 If your business provides an interesting product or service to pilots, flight crews, aircraft, or users of the Lake Bird Heliport, you should consider listing it here.  To start the listing process, click on the button below
 
Add a business
 

Other Pages about Lake Bird Heliport

Update a link
 
Copyright © AirNav, LLC. All rights reserved. Privacy Policy  Contact